{"data":{"norad_id":43188,"intl_designator":"2018-014J","name":"S-NET A","alt_names":[],"object_type":"PAYLOAD","status":"ACTIVE","operator":null,"country":"GER","launch_date":"2018-02-01","launch_site_code":"VOSTO","launch_vehicle":null,"mission":null,"orbit_class":"UNKNOWN","rcs_meters":null,"size_class":null,"mass_kg":null,"dimensions":null,"purposes":[],"wikipedia_slug":null,"has_3d_model":false,"image_url":null,"decayed_at":null,"tle_current":{"epoch":"2026-05-24T16:59:10.763808Z","epoch_age_seconds":107219,"freshness":"FRESH","line1":"1 43188U 18014J   26144.70776347  .00003882  00000+0  20299-3 0  9991","line2":"2 43188  97.5394  49.8369 0010636  94.8809 265.3639 15.16418042455208","mean_motion":15.16418042,"eccentricity":0.0010636,"inclination_deg":97.5394,"raan_deg":49.8369,"arg_perigee_deg":94.8809,"mean_anomaly_deg":265.3639,"bstar":0.00020299,"rev_number":45520,"period_min":94.960621683239,"perigee_km":509.34353698836,"apogee_km":524.0101850335,"semimajor_km":6894.8138610109,"source":"CELESTRAK","updated_at":"2026-05-25T13:37:55.790602Z"}}}